Tracking 20711 objects as of 30-May-2020
HD Live streaming from Space Station
objects crossing your sky now

FENGYUN 1C DEB

Track FENGYUN 1C DEB now!
10-day predictions


NORAD ID: 31094
Int'l Code: 1999-025BGQ
Perigee: 841.7 km
Apogee: 1,007.5 km
Inclination: 99.0 °
Period: 103.4 minutes
Semi major axis: 7295 km
RCS: 0.0135 m2 (small)
Launch date: May 10, 1999
Source: People's Republic of China (PRC)
Launch site: Taiyaun Space Center, China (TSC)

Note: This is SATELLITE DEBRIS
aabbcc
Your satellite tracking list
Your tracking list is empty




NASA's NSSDC Master Catalog

Two Line Element Set (TLE):
1 31094U 99025BGQ 20150.25311717  .00000282  00000-0  23684-3 0  9995
2 31094  99.0086  48.0376 0113624 215.2492 144.1117 13.93191968674658
Source of the keplerian elements: AFSPC